[[[{"header":{"parameterUnit":"kt","parameterCategory":2,"dx":1,"dy":1,"la1":30.253999710083008,"la2":30.299108505249023,"lo1":-89.0895004272461,"lo2":-89.04439544677734,"nx":28,"ny":28,"refTime":"2022-09-21T09:00:00:Z","depth":"0","parameterNumber":2,"parameterNumberName":"U-component_of_CURRENTS"},"data":[-0.2773,-0.2688,-0.2649,-0.2575,-0.254,-0.2462,-0.2431,-0.2423,-0.2489,-0.2629,-0.2774,-0.2954,-0.3161,-0.2997,-0.2659,-0.2469,-0.2115,-0.1976,-0.1846,-0.2374,-0.243,-0.2483,-0.2377,-0.1944,-0.1942,-0.1193,-0.1185,-0.118,-0.2787,-0.2732,-0.2687,-0.2629,-0.261,-0.262,-0.2625,-0.2609,-0.2677,-0.2851,-0.2997,-0.3216,-0.3279,-0.332,-0.3266,-0.2955,-0.2801,-0.2746,-0.2635,-0.2516,-0.3212,-0.3128,-0.2848,-0.2848,-0.2848,-0.2848,-0.2848,-0.2848,-0.2829,-0.278,-0.2744,-0.2702,-0.2701,-0.2692,-0.2659,-0.2771,-0.2856,-0.3012,-0.3176,-0.3317,-0.3506,-0.3643,-0.3588,-0.3438,-0.3427,-0.3421,-0.3272,-0.3229,-0.2965,-0.3655,-0.3545,-0.3546,-0.3548,-0.3549,-0.355,0,-0.2879,-0.2845,-0.283,-0.2784,-0.278,-0.2788,-0.2842,-0.287,-0.3053,-0.315,-0.3311,-0.3424,-0.3593,-0.3689,-0.3799,-0.3841,-0.3701,-0.3927,-0.3802,-0.3447,-0.3299,-0.3133,-0.3945,-0.3865,-0.3869,-0.3872,-0.3874,-0.3875,-0.2916,-0.2906,-0.2891,-0.288,-0.2891,-0.292,-0.2952,-0.3085,-0.3154,-0.3361,-0.3396,-0.3544,-0.367,-0.3845,-0.395,-0.4061,-0.3964,-0.4011,-0.4029,-0.3852,-0.3704,-0.363,-0.3474,-0.3914,-0.3909,-0.3905,-0.3901,0,-0.2925,-0.2958,-0.2968,-0.3024,-0.3031,-0.3039,-0.3137,-0.3192,-0.3319,-0.3412,-0.344,-0.3657,-0.377,-0.3927,-0.4109,-0.4177,-0.4102,-0.4297,-0.4146,-0.4135,-0.3923,-0.3779,-0.3548,-0.335,-0.4234,-0.4231,-0.4228,0,-0.2968,-0.2993,-0.302,-0.304,-0.3061,-0.3182,-0.3237,-0.3324,-0.3457,-0.353,-0.3677,-0.3756,-0.3939,-0.4043,-0.4167,-0.4247,-0.4307,-0.4341,-0.4351,-0.4251,-0.4231,-0.4112,-0.3966,-0.4489,-0.4489,-0.4489,-0.4489,0,-0.2976,-0.3031,-0.3058,-0.3106,-0.3224,-0.3258,-0.3334,-0.3485,-0.3553,-0.368,-0.3726,-0.3875,-0.3955,-0.4055,-0.4219,-0.4235,-0.4351,-0.4399,-0.4367,-0.4359,-0.4265,-0.4246,-0.4079,-0.4488,-0.4488,-0.4488,-0.4488,0,-0.3028,-0.3041,-0.3069,-0.3192,-0.3215,-0.3266,-0.3429,-0.3508,-0.3658,-0.3725,-0.3837,-0.3932,-0.407,-0.4109,-0.4274,-0.4244,-0.433,-0.4404,-0.4407,-0.4295,-0.4313,-0.4192,-0.4172,-0.4027,-0.4443,-0.4442,-0.4442,0,-0.3082,-0.3078,-0.3135,-0.3202,-0.3243,-0.3383,-0.3457,-0.3579,-0.3684,-0.3774,-0.391,-0.4012,-0.4101,-0.4161,-0.423,-0.4354,-0.4397,-0.4379,-0.4432,-0.4434,-0.4292,-0.4297,-0.4171,-0.4176,-0.4437,-0.4437,-0.4438,0,-0.3129,-0.3181,-0.3184,-0.3231,-0.3365,-0.3408,-0.349,-0.3619,-0.3674,-0.3782,-0.3859,-0.4049,-0.4111,-0.4187,-0.4301,-0.4352,-0.4391,-0.4367,-0.4369,-0.4346,-0.4431,-0.4306,-0.4298,-0.4402,-0.4403,-0.4404,-0.4433,0,-0.3211,-0.3249,-0.3232,-0.3312,-0.3371,-0.3417,-0.3535,-0.3596,-0.3673,-0.3768,-0.3891,-0.4014,-0.4142,-0.4218,-0.4282,-0.4383,-0.4369,-0.4392,-0.4368,-0.4399,-0.4412,-0.4415,-0.4382,-0.4383,-0.4383,-0.4383,0,0,-0.3291,-0.331,-0.3373,-0.3377,-0.3442,-0.3551,-0.358,-0.3647,-0.3768,-0.3819,-0.3823,-0.4037,-0.4128,-0.427,-0.4314,-0.4355,-0.4351,-0.4332,-0.4397,-0.4398,-0.44,-0.4412,-0.4414,-0.4384,-0.4384,-0.4384,-0.4384,0,-0.3326,-0.3385,-0.337,-0.3434,-0.3504,-0.3586,-0.359,-0.3696,-0.3746,-0.3819,-0.3917,-0.4013,-0.4112,-0.4225,-0.4286,-0.4346,-0.4357,-0.4385,-0.4364,-0.4399,-0.44,-0.4401,-0.4412,-0.4415,-0.4385,-0.4385,-0.4385,0,-0.3409,-0.3457,-0.3481,-0.3559,-0.3608,-0.3654,-0.3714,-0.3744,-0.3801,-0.3873,-0.3939,-0.4022,-0.4122,-0.4208,-0.4244,-0.4237,-0.4339,-0.4329,-0.433,-0.4309,-0.4343,-0.4346,-0.4347,-0.4315,-0.4314,-0.4314,0,0,-0.3438,-0.3463,-0.357,-0.3581,-0.3599,-0.3699,-0.3727,-0.3784,-0.3848,-0.3871,-0.3941,-0.4019,-0.4105,-0.4136,-0.4208,-0.4263,-0.4269,-0.4317,-0.432,-0.4323,-0.4303,-0.4338,-0.4341,-0.4311,-0.4311,-0.4311,0,0,-0.3457,-0.3563,-0.3617,-0.3626,-0.3702,-0.3803,-0.3793,-0.3855,-0.3907,-0.3902,-0.3983,-0.3999,-0.4068,-0.4105,-0.4065,-0.4224,-0.4217,-0.4225,-0.4185,-0.419,-0.4193,-0.4152,-0.4114,0,0,0,0,0,-0.3576,-0.3553,-0.3602,-0.3618,-0.3727,-0.3789,-0.3805,-0.3869,-0.3888,-0.3892,-0.3951,-0.398,-0.412,-0.4085,-0.4098,-0.4149,-0.428,-0.4286,-0.4291,-0.4255,-0.426,-0.4264,0,0,0,0,0,0,-0.3583,-0.3602,-0.3602,-0.37,-0.3726,-0.379,-0.384,-0.3859,-0.3889,-0.3895,-0.3971,-0.3983,-0.4037,-0.4081,-0.4093,-0.414,-0.411,-0.4283,-0.4287,-0.4291,-0.4257,-0.4261,-0.4264,0,0,0,0,0,-0.3589,-0.3604,-0.3757,-0.3701,-0.3723,-0.3812,-0.384,-0.3856,-0.3879,-0.3962,-0.3976,-0.3922,-0.4036,-0.4048,-0.4088,-0.4135,-0.4102,-0.4106,-0.4286,-0.4289,-0.4293,-0.4259,0,0,0,0,0,0,-0.3593,-0.3626,-0.3764,-0.3773,-0.3697,-0.3809,-0.3827,-0.3853,-0.3945,-0.396,-0.3917,-0.392,-0.4035,-0.4045,-0.4055,-0.4132,-0.4096,-0.41,-0.4103,-0.4288,-0.4291,-0.4294,0,0,0,0,0,0,-0.3618,-0.3634,-0.3769,-0.3759,-0.3768,-0.3806,-0.3822,-0.3864,-0.3944,-0.3895,-0.3901,-0.3917,-0.4009,-0.4043,-0.405,-0.4115,-0.4091,-0.4095,-0.4098,-0.41,-0.4291,-0.4293,0,0,0,0,0,0,-0.3626,-0.364,-0.3757,-0.3764,-0.3772,-0.3889,-0.3844,-0.3945,-0.3956,-0.3889,-0.3956,-0.3956,-0.4005,-0.4015,-0.4047,-0.4108,-0.4113,-0.4092,-0.4094,-0.4096,-0.4097,0,0,0,0,0,0,0,-0.3633,-0.3523,-0.3703,-0.3768,-0.3776,-0.3864,-0.3867,-0.387,-0.3956,-0.3956,-0.3956,-0.3956,-0.4069,-0.4073,-0.4077,-0.4103,0,0,-0.4091,-0.4093,0,0,0,0,0,0,0,0,-0.3519,-0.3522,-0.3703,-0.3705,-0.3707,-0.3865,-0.3867,-0.3869,-0.3956,-0.3956,-0.3956,-0.3956,-0.407,-0.4073,-0.4077,0,0,0,0,0,0,0,0,0,0,0,0,0,0,0,-0.3704,-0.3705,0,-0.3865,-0.3867,-0.3869,-0.3956,-0.3956,-0.3956,-0.3956,-0.4071,-0.4074,-0.4077,0,0,0,0,0,0,0,0,0,0,0,0,0,0,0,0,0,0,0,0,0,0,0,0,0,0,0,0,0,0,0,0,0,0,0,0,0,0,0,0,0,0,0,0,0,0,0,0,0,0,0,0,0,0,0,0,0,0,0,0,0,0,0,0,0,0,0,0,0]}],[{"header":{"parameterUnit":"kt","parameterCategory":2,"dx":1,"dy":1,"la1":30.253999710083008,"la2":30.299108505249023,"lo1":-89.0895004272461,"lo2":-89.04439544677734,"nx":28,"ny":28,"refTime":"2022-09-21T09:00:00:Z","depth":"0","parameterNumber":3,"parameterNumberName":"V-component_of_CURRENTS"},"data":[-0.2917,-0.2974,-0.3049,-0.3184,-0.3245,-0.3291,-0.3331,-0.3448,-0.3576,-0.376,-0.3914,-0.3945,-0.3569,-0.283,-0.2207,-0.2023,-0.141,-0.148,-0.0996,-0.169,-0.1704,-0.1718,-0.1679,-0.1566,-0.1565,-0.0142,-0.0131,-0.0123,-0.2999,-0.3036,-0.3172,-0.3208,-0.3278,-0.3306,-0.3372,-0.3398,-0.3448,-0.3563,-0.3534,-0.3568,-0.336,-0.308,-0.2742,-0.239,-0.2022,-0.2104,-0.1834,-0.1521,-0.2341,-0.2332,-0.2357,-0.2357,-0.2357,-0.2357,-0.2357,-0.2358,-0.3033,-0.3067,-0.309,-0.3194,-0.3256,-0.3293,-0.3328,-0.3358,-0.3371,-0.3358,-0.326,-0.3268,-0.3122,-0.2984,-0.2795,-0.2502,-0.228,-0.239,-0.2239,-0.2046,-0.1689,-0.26,-0.2601,-0.2601,-0.26,-0.2599,-0.2599,0,-0.2979,-0.298,-0.3005,-0.3116,-0.3164,-0.3205,-0.3232,-0.3248,-0.3188,-0.3174,-0.3112,-0.3045,-0.29,-0.285,-0.2727,-0.2622,-0.2185,-0.2472,-0.228,-0.2193,-0.2028,-0.1701,-0.2547,-0.2521,-0.2519,-0.2519,-0.2518,-0.2517,-0.2914,-0.2922,-0.2981,-0.3025,-0.3049,-0.3075,-0.3119,-0.3085,-0.309,-0.2995,-0.2991,-0.2863,-0.2812,-0.2637,-0.2558,-0.2486,-0.2169,-0.2443,-0.2423,-0.2304,-0.2163,-0.1967,-0.1675,-0.2503,-0.2505,-0.2506,-0.2508,0,-0.2898,-0.2903,-0.293,-0.2958,-0.298,-0.3,-0.2999,-0.3022,-0.2983,-0.297,-0.2943,-0.283,-0.2726,-0.2609,-0.2461,-0.2413,-0.2175,-0.2323,-0.2446,-0.2459,-0.2322,-0.2195,-0.1864,-0.1514,-0.2352,-0.2353,-0.2354,0,-0.2918,-0.2922,-0.2959,-0.2944,-0.2992,-0.2921,-0.2942,-0.2965,-0.2929,-0.292,-0.2838,-0.2807,-0.264,-0.2551,-0.2481,-0.2399,-0.2358,-0.2344,-0.2345,-0.2403,-0.2416,-0.2273,-0.2149,-0.2252,-0.2251,-0.2251,-0.2251,0,-0.2916,-0.2952,-0.295,-0.293,-0.2914,-0.2911,-0.2902,-0.2876,-0.2878,-0.2835,-0.2809,-0.2725,-0.2657,-0.2572,-0.2467,-0.2474,-0.2348,-0.2338,-0.2354,-0.2361,-0.2412,-0.2426,-0.2194,-0.225,-0.225,-0.225,-0.225,0,-0.2923,-0.2944,-0.2954,-0.2914,-0.2906,-0.2897,-0.2856,-0.2861,-0.2824,-0.2802,-0.2748,-0.2701,-0.2614,-0.2574,-0.2467,-0.2502,-0.2463,-0.2417,-0.2416,-0.246,-0.2493,-0.2533,-0.2526,-0.2359,-0.2463,-0.2464,-0.2465,0,-0.289,-0.2922,-0.2889,-0.2882,-0.287,-0.2812,-0.2823,-0.278,-0.2751,-0.2731,-0.2653,-0.2642,-0.2616,-0.2616,-0.254,-0.2498,-0.2458,-0.2485,-0.2471,-0.2472,-0.2468,-0.2444,-0.2507,-0.2538,-0.2478,-0.2477,-0.2476,0,-0.283,-0.282,-0.2824,-0.2799,-0.2748,-0.2728,-0.274,-0.2711,-0.2728,-0.2673,-0.2662,-0.2636,-0.26,-0.2618,-0.2625,-0.2559,-0.2486,-0.2578,-0.2576,-0.2557,-0.2422,-0.2461,-0.2457,-0.246,-0.2457,-0.2455,-0.2486,0,-0.2779,-0.277,-0.2785,-0.2745,-0.2718,-0.2723,-0.269,-0.2686,-0.2665,-0.2645,-0.2631,-0.2633,-0.2649,-0.2622,-0.2662,-0.2602,-0.2657,-0.2635,-0.2612,-0.2604,-0.2633,-0.2625,-0.2736,-0.2737,-0.2738,-0.2738,0,0,-0.2719,-0.2709,-0.2648,-0.266,-0.265,-0.2616,-0.2624,-0.263,-0.2656,-0.2655,-0.265,-0.2684,-0.2666,-0.2687,-0.2697,-0.2712,-0.2728,-0.2691,-0.2641,-0.2631,-0.2621,-0.2644,-0.2635,-0.274,-0.274,-0.274,-0.274,0,-0.2691,-0.2633,-0.2634,-0.2614,-0.2616,-0.2614,-0.2607,-0.262,-0.2621,-0.2647,-0.2683,-0.2668,-0.2705,-0.2702,-0.2715,-0.2733,-0.269,-0.2739,-0.2716,-0.265,-0.2639,-0.2628,-0.2648,-0.264,-0.2742,-0.2742,-0.2742,0,-0.2624,-0.2609,-0.2587,-0.2566,-0.2582,-0.2594,-0.2596,-0.262,-0.2629,-0.2663,-0.2694,-0.2702,-0.274,-0.2748,-0.2746,-0.275,-0.2687,-0.2712,-0.2711,-0.2699,-0.263,-0.2619,-0.2609,-0.2724,-0.2723,-0.2723,0,0,-0.2603,-0.2567,-0.2557,-0.2563,-0.2564,-0.2585,-0.2606,-0.2612,-0.2659,-0.2676,-0.268,-0.2712,-0.2732,-0.2734,-0.2745,-0.2749,-0.2736,-0.2704,-0.2705,-0.2705,-0.2694,-0.2627,-0.2617,-0.2721,-0.2721,-0.272,0,0,-0.2616,-0.2578,-0.2551,-0.256,-0.2555,-0.2604,-0.2638,-0.2638,-0.2681,-0.2699,-0.2708,-0.2712,-0.2713,-0.2729,-0.2706,-0.2688,-0.2695,-0.27,-0.2645,-0.2647,-0.2648,-0.2627,-0.264,0,0,0,0,0,-0.2561,-0.2573,-0.2546,-0.2549,-0.2577,-0.2598,-0.2607,-0.2647,-0.2663,-0.2653,-0.272,-0.266,-0.274,-0.2721,-0.2715,-0.2645,-0.2691,-0.2696,-0.2701,-0.2633,-0.2634,-0.2636,0,0,0,0,0,0,-0.2562,-0.256,-0.2549,-0.2591,-0.26,-0.2598,-0.2633,-0.2643,-0.2663,-0.2665,-0.2663,-0.266,-0.2666,-0.2718,-0.2714,-0.2647,-0.2641,-0.2693,-0.2697,-0.2701,-0.2633,-0.2635,-0.2636,0,0,0,0,0,-0.2564,-0.2563,-0.258,-0.2594,-0.2602,-0.2657,-0.2632,-0.264,-0.2647,-0.2666,-0.2666,-0.2674,-0.2666,-0.2662,-0.2715,-0.2649,-0.2644,-0.2642,-0.2696,-0.2699,-0.2702,-0.2634,0,0,0,0,0,0,-0.2565,-0.2576,-0.2585,-0.2592,-0.259,-0.2658,-0.2662,-0.2638,-0.2645,-0.2648,-0.2677,-0.2678,-0.2667,-0.2663,-0.266,-0.2651,-0.2645,-0.2644,-0.2643,-0.2698,-0.2701,-0.2704,0,0,0,0,0,0,-0.2578,-0.258,-0.2588,-0.258,-0.2586,-0.2658,-0.2661,-0.2648,-0.2641,-0.2652,-0.2656,-0.2677,-0.2648,-0.2664,-0.2662,-0.2644,-0.2647,-0.2646,-0.2645,-0.2644,-0.2701,-0.2703,0,0,0,0,0,0,-0.2581,-0.2583,-0.2578,-0.2583,-0.2588,-0.2668,-0.2646,-0.2652,-0.2693,-0.2648,-0.2693,-0.2693,-0.2647,-0.2647,-0.2663,-0.2646,-0.2644,-0.2647,-0.2646,-0.2645,-0.2645,0,0,0,0,0,0,0,-0.2584,-0.2541,-0.2549,-0.2585,-0.259,-0.2661,-0.2662,-0.2663,-0.2693,-0.2693,-0.2693,-0.2693,-0.2654,-0.2652,-0.2651,-0.2648,0,0,-0.2647,-0.2646,0,0,0,0,0,0,0,0,-0.2543,-0.2541,-0.2549,-0.2551,-0.2553,-0.2661,-0.2662,-0.2663,-0.2693,-0.2693,-0.2693,-0.2693,-0.2653,-0.2652,-0.2651,0,0,0,0,0,0,0,0,0,0,0,0,0,0,0,-0.2549,-0.2551,0,-0.2661,-0.2662,-0.2663,-0.2693,-0.2693,-0.2693,-0.2693,-0.2653,-0.2652,-0.2651,0,0,0,0,0,0,0,0,0,0,0,0,0,0,0,0,0,0,0,0,0,0,0,0,0,0,0,0,0,0,0,0,0,0,0,0,0,0,0,0,0,0,0,0,0,0,0,0,0,0,0,0,0,0,0,0,0,0,0,0,0,0,0,0,0,0,0,0,0]}]],[[{"header":{"parameterUnit":"kt","parameterCategory":2,"dx":1,"dy":1,"la1":30.253999710083008,"la2":30.299108505249023,"lo1":-89.0895004272461,"lo2":-89.04439544677734,"nx":28,"ny":28,"refTime":"2022-09-21T09:00:00:Z","depth":"2","parameterNumber":2,"parameterNumberName":"U-component_of_CURRENTS"},"data":[-0.2106,-0.2038,-0.2074,-0.2095,-0.2129,-0.217,-0.2245,-0.2338,-0.2381,-0.2303,-0.214,-0.2108,-0.1786,-0.1364,-0.1078,-0.0835,-0.096,-0.0732,-0.126,-0.1327,-0.1376,-0.1304,-0.1294,0,0,0,0,0,-0.2243,-0.2235,-0.2222,-0.2238,-0.2278,-0.2325,-0.2479,-0.2532,-0.2676,-0.272,-0.2703,-0.2166,-0.1885,-0.1608,-0.122,-0.108,-0.1056,-0.0952,-0.095,-0.0999,-0.1043,-0.1007,-0.0558,-0.0558,-0.0557,-0.0557,0,0,-0.2438,-0.2399,-0.2378,-0.2381,-0.2411,-0.251,-0.2539,-0.2687,-0.2797,-0.2882,-0.2878,-0.2706,-0.2406,-0.1946,-0.1735,-0.1509,-0.1654,-0.1503,-0.1522,-0.1548,-0.1532,-0.1543,-0.1226,-0.1229,-0.1232,-0.1234,-0.1237,0,-0.2589,-0.2574,-0.2565,-0.2555,-0.2562,-0.2616,-0.2683,-0.2741,-0.2913,-0.2953,-0.2992,-0.2938,-0.2653,-0.2353,-0.2105,-0.196,-0.1972,-0.1829,-0.2277,-0.1805,-0.182,-0.18,-0.1838,-0.1558,-0.1563,-0.1567,-0.157,-0.1572,-0.274,-0.2699,-0.2723,-0.2712,-0.2725,-0.2743,-0.2781,-0.2907,-0.2956,-0.3029,-0.303,-0.2932,-0.2873,-0.2607,-0.2445,-0.2276,-0.2374,-0.1956,-0.1964,-0.2418,-0.2393,-0.2413,-0.2431,-0.163,-0.1622,-0.1616,-0.1611,0,-0.2813,-0.2849,-0.2815,-0.2876,-0.2894,-0.2883,-0.2965,-0.2985,-0.3063,-0.3081,-0.3092,-0.3096,-0.2978,-0.2888,-0.2726,-0.2651,-0.2517,-0.2451,-0.225,-0.2183,-0.2444,-0.2458,-0.2258,-0.2253,-0.225,-0.2247,-0.2244,0,-0.2966,-0.2929,-0.2993,-0.2971,-0.2966,-0.3047,-0.3043,-0.3115,-0.3159,-0.3177,-0.322,-0.3183,-0.3101,-0.2993,-0.2936,-0.274,-0.275,-0.2639,-0.2592,-0.2399,-0.2378,-0.273,-0.2738,-0.2674,-0.2675,-0.2676,-0.2677,0,-0.3088,-0.3083,-0.3058,-0.3063,-0.313,-0.3132,-0.3175,-0.3224,-0.324,-0.3266,-0.3258,-0.3207,-0.3143,-0.3058,-0.2974,-0.2998,-0.2793,-0.28,-0.2657,-0.2652,-0.2378,-0.2352,-0.2678,-0.2679,-0.2679,-0.2679,-0.268,0,-0.3213,-0.3216,-0.3169,-0.3223,-0.322,-0.321,-0.3254,-0.3265,-0.3282,-0.3288,-0.3262,-0.3231,-0.3196,-0.3187,-0.3047,-0.3094,-0.3023,-0.2964,-0.2955,-0.2845,-0.282,-0.251,-0.2355,-0.2862,-0.2864,-0.2866,-0.2867,0,-0.3346,-0.3297,-0.3338,-0.3289,-0.3268,-0.3329,-0.3334,-0.3349,-0.3346,-0.332,-0.3289,-0.3235,-0.3241,-0.3227,-0.3189,-0.3109,-0.3066,-0.3148,-0.2931,-0.2925,-0.2896,-0.2808,-0.2561,-0.24,-0.2891,-0.2888,-0.2887,0,-0.3442,-0.3462,-0.3436,-0.3436,-0.3441,-0.3431,-0.3419,-0.3424,-0.342,-0.3355,-0.3329,-0.3254,-0.3248,-0.321,-0.3196,-0.3162,-0.3104,-0.3134,-0.3128,-0.3116,-0.2928,-0.2851,-0.2828,-0.306,-0.3058,-0.3056,-0.2905,0,-0.3605,-0.3563,-0.3525,-0.3512,-0.3505,-0.3462,-0.3489,-0.3463,-0.3445,-0.3447,-0.3354,-0.3297,-0.3233,-0.3204,-0.3211,-0.3149,-0.3119,-0.3093,-0.3125,-0.3085,-0.302,-0.3006,-0.3158,-0.3156,-0.3155,-0.3154,0,0,-0.3698,-0.3662,-0.3672,-0.3637,-0.3629,-0.3642,-0.3608,-0.3592,-0.3537,-0.3526,-0.3498,-0.3347,-0.3292,-0.3238,-0.3242,-0.3181,-0.3126,-0.3205,-0.3096,-0.309,-0.3084,-0.3023,-0.3011,-0.3153,-0.3152,-0.3152,-0.3152,0,-0.3773,-0.375,-0.37,-0.3693,-0.3666,-0.3682,-0.366,-0.3643,-0.362,-0.3541,-0.3517,-0.3452,-0.3308,-0.3295,-0.3261,-0.3178,-0.3124,-0.3123,-0.3172,-0.3091,-0.3086,-0.3082,-0.3021,-0.3011,-0.3149,-0.3149,-0.3149,0,-0.3868,-0.3866,-0.384,-0.3815,-0.3793,-0.3773,-0.3793,-0.3736,-0.3717,-0.3679,-0.3585,-0.3521,-0.3441,-0.3354,-0.3293,-0.3311,-0.3149,-0.3188,-0.319,-0.3193,-0.3109,-0.3103,-0.3098,-0.3173,-0.3174,-0.3174,0,0,-0.3918,-0.3882,-0.3895,-0.3833,-0.3821,-0.3814,-0.3785,-0.378,-0.3736,-0.3702,-0.3639,-0.3555,-0.3478,-0.343,-0.3334,-0.3245,-0.3199,-0.3198,-0.3197,-0.3197,-0.32,-0.3116,-0.311,-0.3177,-0.3177,-0.3178,0,0,-0.3947,-0.3956,-0.3957,-0.3895,-0.3879,-0.3882,-0.3821,-0.3823,-0.3745,-0.372,-0.3676,-0.365,-0.3523,-0.3471,-0.352,-0.3355,-0.335,-0.3337,-0.3425,-0.3422,-0.3421,-0.3457,-0.3514,0,0,0,0,0,-0.4024,-0.3965,-0.3966,-0.3957,-0.3914,-0.3888,-0.3879,-0.3855,-0.3847,-0.3804,-0.3745,-0.3716,-0.3497,-0.354,-0.351,-0.3477,-0.3216,-0.3209,-0.3203,-0.3289,-0.3287,-0.3285,0,0,0,0,0,0,-0.4021,-0.4013,-0.3967,-0.3973,-0.3963,-0.3891,-0.3915,-0.3908,-0.3851,-0.3847,-0.3734,-0.3715,-0.3686,-0.355,-0.3525,-0.3495,-0.3522,-0.3213,-0.3207,-0.3202,-0.3288,-0.3287,-0.3285,0,0,0,0,0,-0.4019,-0.4013,-0.3949,-0.3972,-0.3963,-0.3928,-0.3915,-0.3909,-0.385,-0.379,-0.377,-0.3828,-0.3689,-0.366,-0.3535,-0.3508,-0.3539,-0.353,-0.3209,-0.3205,-0.3201,-0.3288,0,0,0,0,0,0,-0.4017,-0.4002,-0.3946,-0.3943,-0.3975,-0.3929,-0.3921,-0.391,-0.3793,-0.3777,-0.3884,-0.3883,-0.369,-0.3667,-0.3646,-0.3517,-0.3554,-0.3544,-0.3538,-0.3206,-0.3202,-0.3199,0,0,0,0,0,0,-0.4005,-0.3999,-0.3944,-0.395,-0.3946,-0.393,-0.3924,-0.3825,-0.3788,-0.3892,-0.3889,-0.3884,-0.3687,-0.3672,-0.3655,-0.3506,-0.3564,-0.3555,-0.3549,-0.3545,-0.3203,-0.32,0,0,0,0,0,0,-0.4002,-0.3996,-0.395,-0.3948,-0.3944,-0.3896,-0.3837,-0.3771,-0.3867,-0.3894,-0.3867,-0.3867,-0.369,-0.3674,-0.3662,-0.352,-0.3509,-0.3564,-0.3558,-0.3554,-0.3551,0,0,0,0,0,0,0,-0.3999,-0.4045,-0.3972,-0.3946,-0.3943,-0.3906,-0.3905,-0.3904,-0.3867,-0.3867,-0.3867,-0.3867,-0.3616,-0.3606,-0.3596,-0.3532,0,0,-0.3565,-0.3561,0,0,0,0,0,0,0,0,-0.4046,-0.4045,-0.3972,-0.3971,-0.3971,-0.3906,-0.3905,-0.3904,-0.3867,-0.3867,-0.3867,-0.3867,-0.3614,-0.3606,-0.3597,0,0,0,0,0,0,0,0,0,0,0,0,0,0,0,-0.3972,-0.3972,0,-0.3906,-0.3905,-0.3904,-0.3867,-0.3867,-0.3867,-0.3867,-0.3611,-0.3605,-0.3598,0,0,0,0,0,0,0,0,0,0,0,0,0,0,0,0,0,0,0,0,0,0,0,0,0,0,0,0,0,0,0,0,0,0,0,0,0,0,0,0,0,0,0,0,0,0,0,0,0,0,0,0,0,0,0,0,0,0,0,0,0,0,0,0,0,0,0,0,0]}],[{"header":{"parameterUnit":"kt","parameterCategory":2,"dx":1,"dy":1,"la1":30.253999710083008,"la2":30.299108505249023,"lo1":-89.0895004272461,"lo2":-89.04439544677734,"nx":28,"ny":28,"refTime":"2022-09-21T09:00:00:Z","depth":"2","parameterNumber":3,"parameterNumberName":"V-component_of_CURRENTS"},"data":[0.1028,0.0929,0.0869,0.0616,0.0488,0.0252,0.0128,-0.0129,-0.0159,-0.0307,-0.008,0.0117,0.0702,0.1029,0.1226,0.1496,0.1365,0.14,0.1153,0.1412,0.1396,0.1606,0.1715,0,0,0,0,0,0.1026,0.0958,0.0863,0.0689,0.0529,0.0475,0.0301,0.0143,-0.0056,-0.0035,-0.0147,0.0194,0.0531,0.0822,0.1256,0.1312,0.1343,0.1292,0.1529,0.1523,0.1516,0.1582,0.1585,0.1582,0.158,0.1578,0,0,0.1019,0.0976,0.089,0.0753,0.0641,0.0494,0.0372,0.0268,0.015,0.0059,0.0102,0.0174,0.0475,0.0695,0.0763,0.098,0.0995,0.1238,0.1244,0.1246,0.1293,0.1268,0.1223,0.122,0.1217,0.1215,0.1213,0,0.1025,0.0979,0.0921,0.079,0.0692,0.0592,0.0481,0.0435,0.0418,0.038,0.0331,0.0283,0.0392,0.0628,0.0719,0.0788,0.1122,0.1123,0.0896,0.1556,0.1541,0.1593,0.1597,0.1541,0.154,0.1539,0.1538,0.1538,0.1034,0.0996,0.0901,0.0846,0.0796,0.0688,0.0625,0.06,0.0571,0.0597,0.0585,0.0592,0.0559,0.0616,0.0809,0.0853,0.0906,0.1102,0.1263,0.1056,0.1103,0.1121,0.1136,0.1523,0.1525,0.1526,0.1527,0,0.1044,0.1019,0.0962,0.0899,0.0865,0.0792,0.072,0.0683,0.07,0.0686,0.068,0.0787,0.08,0.09,0.0997,0.1071,0.1114,0.1094,0.1306,0.1358,0.1154,0.1165,0.0987,0.0982,0.0978,0.0975,0.0972,0,0.1075,0.1042,0.0984,0.0959,0.0889,0.0897,0.0835,0.0855,0.0856,0.084,0.0929,0.0938,0.1083,0.1109,0.1191,0.1193,0.1234,0.1278,0.1307,0.1545,0.1556,0.1571,0.159,0.1416,0.1417,0.1418,0.1419,0,0.1092,0.1077,0.1038,0.1041,0.1041,0.1009,0.0998,0.103,0.1033,0.1051,0.1065,0.1102,0.113,0.1179,0.1281,0.134,0.1325,0.1453,0.1367,0.136,0.1617,0.1634,0.142,0.142,0.1421,0.1421,0.1421,0,0.1135,0.111,0.1079,0.1074,0.1075,0.1069,0.1089,0.111,0.1147,0.1185,0.1203,0.1277,0.1294,0.1371,0.1421,0.1442,0.1469,0.1543,0.1543,0.1517,0.1618,0.1692,0.1604,0.1555,0.1557,0.1558,0.1559,0,0.1156,0.1124,0.1155,0.1151,0.1146,0.1212,0.1226,0.1269,0.1323,0.1338,0.1415,0.1464,0.1532,0.1547,0.1552,0.1679,0.1624,0.1679,0.1738,0.1738,0.161,0.1479,0.1727,0.1624,0.1578,0.1576,0.1575,0,0.1185,0.119,0.1194,0.1194,0.1264,0.1279,0.1307,0.1359,0.1357,0.1436,0.144,0.1572,0.159,0.1663,0.1749,0.1756,0.1657,0.1812,0.1818,0.1701,0.1615,0.1517,0.1495,0.1723,0.1721,0.172,0.159,0,0.1224,0.1236,0.1221,0.1269,0.1297,0.1311,0.1388,0.1412,0.1467,0.1522,0.1586,0.1701,0.179,0.1854,0.1915,0.191,0.1914,0.2008,0.2019,0.1966,0.1922,0.1909,0.2113,0.2116,0.2119,0.2122,0,0,0.1272,0.1286,0.133,0.1334,0.1363,0.1449,0.1459,0.1504,0.1604,0.1618,0.1659,0.1838,0.1941,0.2003,0.1997,0.2075,0.2062,0.2045,0.2021,0.2009,0.1998,0.195,0.1935,0.2127,0.2128,0.2129,0.213,0,0.1306,0.1336,0.1325,0.1366,0.1424,0.1483,0.1486,0.157,0.1603,0.1663,0.1762,0.1826,0.1971,0.2043,0.2107,0.2106,0.2148,0.2164,0.2029,0.2046,0.203,0.2016,0.1965,0.1949,0.2138,0.2137,0.2137,0,0.1362,0.1404,0.1411,0.1479,0.152,0.155,0.1616,0.1637,0.1669,0.178,0.1825,0.1917,0.2053,0.2109,0.2149,0.2164,0.2187,0.2233,0.2222,0.2199,0.2219,0.2202,0.2187,0.2368,0.2368,0.2367,0,0,0.1391,0.1397,0.1491,0.1498,0.1514,0.1601,0.1626,0.1672,0.174,0.1763,0.1848,0.1947,0.2042,0.2076,0.2178,0.2216,0.2234,0.2249,0.2238,0.2228,0.22,0.2218,0.2203,0.2366,0.2366,0.2366,0,0,0.1412,0.1493,0.1535,0.1543,0.1607,0.1697,0.1688,0.1744,0.1798,0.1795,0.191,0.1936,0.2007,0.2086,0.2052,0.2183,0.2246,0.2254,0.208,0.2068,0.2058,0.1993,0.2141,0,0,0,0,0,0.1503,0.1483,0.1521,0.1535,0.1627,0.1682,0.1695,0.1756,0.1779,0.1779,0.185,0.1916,0.21,0.207,0.2095,0.2094,0.2347,0.235,0.2353,0.2146,0.2132,0.2121,0,0,0,0,0,0,0.151,0.1526,0.1522,0.1609,0.1631,0.1683,0.1734,0.1751,0.178,0.1787,0.1898,0.192,0.1994,0.2065,0.2086,0.2083,0.2134,0.2348,0.2351,0.2353,0.2141,0.213,0.2121,0,0,0,0,0,0.1515,0.1529,0.1657,0.161,0.1629,0.1712,0.1735,0.1749,0.1769,0.1886,0.1907,0.1813,0.1992,0.2016,0.2078,0.2071,0.212,0.2128,0.235,0.2352,0.2354,0.2136,0,0,0,0,0,0,0.1519,0.1541,0.1663,0.1671,0.1614,0.171,0.1726,0.1747,0.1869,0.1888,0.1808,0.1812,0.199,0.2009,0.2027,0.2061,0.2109,0.2117,0.2121,0.2352,0.2353,0.2355,0,0,0,0,0,0,0.1534,0.1547,0.1667,0.1669,0.1678,0.1708,0.1722,0.1796,0.1871,0.1784,0.1791,0.1809,0.1982,0.2004,0.2018,0.213,0.2101,0.2108,0.2113,0.2116,0.2353,0.2354,0,0,0,0,0,0,0.1541,0.1552,0.1667,0.1674,0.1682,0.1781,0.1777,0.1878,0.1839,0.1778,0.1841,0.1842,0.1978,0.1992,0.2012,0.2117,0.2127,0.2101,0.2106,0.2109,0.2111,0,0,0,0,0,0,0,0.1547,0.1454,0.1614,0.1678,0.1685,0.1751,0.1753,0.1755,0.1839,0.184,0.1841,0.1842,0.206,0.2068,0.2076,0.2107,0,0,0.21,0.2104,0,0,0,0,0,0,0,0,0.1451,0.1453,0.1615,0.1617,0.1619,0.1752,0.1753,0.1755,0.1839,0.184,0.184,0.1841,0.2062,0.2068,0.2075,0,0,0,0,0,0,0,0,0,0,0,0,0,0,0,0.1615,0.1616,0,0.1752,0.1753,0.1755,0.1839,0.184,0.184,0.1841,0.2064,0.2069,0.2074,0,0,0,0,0,0,0,0,0,0,0,0,0,0,0,0,0,0,0,0,0,0,0,0,0,0,0,0,0,0,0,0,0,0,0,0,0,0,0,0,0,0,0,0,0,0,0,0,0,0,0,0,0,0,0,0,0,0,0,0,0,0,0,0,0,0,0,0,0]}]],[[{"header":{"parameterUnit":"kt","parameterCategory":2,"dx":1,"dy":1,"la1":30.253999710083008,"la2":30.299108505249023,"lo1":-89.0895004272461,"lo2":-89.04439544677734,"nx":28,"ny":28,"refTime":"2022-09-21T09:00:00:Z","depth":"4","parameterNumber":2,"parameterNumberName":"U-component_of_CURRENTS"},"data":[-0.1244,-0.1232,-0.12,-0.1025,-0.0936,-0.0856,-0.0876,-0.0956,-0.0936,-0.1058,-0.1028,-0.1121,-0.108,-0.1162,-0.1053,-0.106,-0.1348,-0.1151,-0.1147,-0.173,-0.1771,-0.1807,-0.1696,0,0,0,0,0,-0.1296,-0.1253,-0.1232,-0.1179,-0.1135,-0.1109,-0.1149,-0.1201,-0.1298,-0.1207,-0.1282,-0.1222,-0.1169,-0.1171,-0.11,-0.1209,-0.1475,-0.1122,-0.1616,-0.1756,-0.1801,-0.1678,0,0,0,0,0,0,-0.1354,-0.1342,-0.1359,-0.1343,-0.1314,-0.1237,-0.1285,-0.1256,-0.1271,-0.1416,-0.1334,-0.1394,-0.1464,-0.1392,-0.1427,-0.1437,-0.1468,-0.1564,-0.1616,-0.1661,-0.1526,-0.1364,-0.0998,0,0,0,0,0,-0.1388,-0.1432,-0.1454,-0.144,-0.1446,-0.1424,-0.1455,-0.1439,-0.1547,-0.1666,-0.1604,-0.1602,-0.1544,-0.1599,-0.1626,-0.1718,-0.2135,-0.2013,-0.2041,-0.2139,-0.2059,-0.2052,-0.2075,-0.1972,-0.1978,-0.1982,-0.1984,0,-0.1451,-0.1454,-0.1524,-0.1522,-0.156,-0.1605,-0.1608,-0.1723,-0.1742,-0.1841,-0.183,-0.1857,-0.1933,-0.1841,-0.2001,-0.2083,-0.2096,-0.2129,-0.2233,-0.2132,-0.2111,-0.2124,-0.2133,-0.202,-0.2017,-0.2014,-0.2011,0,-0.1485,-0.152,-0.155,-0.1624,-0.1643,-0.1684,-0.176,-0.1782,-0.1924,-0.1972,-0.2018,-0.2153,-0.2167,-0.2329,-0.2458,-0.2459,-0.2472,-0.2399,-0.2722,-0.271,-0.2201,-0.2197,-0.208,-0.2067,-0.2055,-0.2046,-0.2038,0,-0.1539,-0.1562,-0.1618,-0.1635,-0.1667,-0.1764,-0.1827,-0.1926,-0.2028,-0.2063,-0.2272,-0.2284,-0.252,-0.2573,-0.2678,-0.2584,-0.2775,-0.2543,-0.2506,-0.2881,-0.2875,-0.2892,-0.2886,-0.2945,-0.2946,-0.2946,-0.2946,0,-0.1579,-0.1628,-0.1646,-0.1673,-0.1761,-0.1808,-0.1875,-0.2011,-0.2054,-0.2226,-0.2273,-0.2445,-0.2509,-0.2629,-0.2708,-0.2748,-0.2802,-0.2862,-0.2569,-0.2543,-0.2891,-0.2884,-0.2946,-0.2946,-0.2946,-0.2946,-0.2946,0,-0.1637,-0.1651,-0.1681,-0.175,-0.1773,-0.1823,-0.1938,-0.2007,-0.2145,-0.2219,-0.2352,-0.2435,-0.2574,-0.2611,-0.2752,-0.2733,-0.2776,-0.2815,-0.2815,-0.2485,-0.243,-0.2713,-0.2776,-0.2775,-0.2774,-0.2773,-0.2772,0,-0.1655,-0.1674,-0.1726,-0.1774,-0.1796,-0.1896,-0.1949,-0.2053,-0.2148,-0.2232,-0.2358,-0.2444,-0.2511,-0.2572,-0.2657,-0.2712,-0.2766,-0.2742,-0.2785,-0.2785,-0.2432,-0.2408,-0.2783,-0.276,-0.2762,-0.2763,-0.2764,0,-0.1669,-0.1728,-0.1738,-0.1758,-0.186,-0.1904,-0.1978,-0.207,-0.2123,-0.2237,-0.2306,-0.2434,-0.2502,-0.2552,-0.262,-0.2694,-0.2741,-0.2705,-0.2708,-0.2665,-0.2805,-0.2438,-0.241,-0.2772,-0.2774,-0.2776,-0.2755,0,-0.1701,-0.1729,-0.1745,-0.1792,-0.1853,-0.1907,-0.1987,-0.2054,-0.2123,-0.2187,-0.2296,-0.2376,-0.2471,-0.2514,-0.2542,-0.2645,-0.2622,-0.2638,-0.2642,-0.2693,-0.2674,-0.2681,-0.2603,-0.2603,-0.2603,-0.2603,0,0,-0.1703,-0.1717,-0.1773,-0.1797,-0.184,-0.1931,-0.1967,-0.203,-0.2134,-0.2176,-0.2192,-0.2337,-0.2393,-0.2491,-0.2522,-0.2546,-0.2554,-0.2582,-0.2671,-0.2678,-0.2685,-0.267,-0.2676,-0.2603,-0.2603,-0.2603,-0.2603,0,-0.1698,-0.1736,-0.175,-0.1799,-0.1879,-0.1925,-0.1952,-0.204,-0.2093,-0.2168,-0.22,-0.2277,-0.2368,-0.2426,-0.2464,-0.2536,-0.255,-0.2569,-0.2621,-0.2669,-0.2676,-0.2683,-0.2669,-0.2675,-0.2603,-0.2603,-0.2603,0,-0.1699,-0.1725,-0.1742,-0.1804,-0.1855,-0.1897,-0.194,-0.2019,-0.2064,-0.2107,-0.2183,-0.2227,-0.2292,-0.237,-0.2414,-0.2425,-0.2551,-0.2531,-0.2533,-0.2541,-0.259,-0.2599,-0.2607,-0.25,-0.2499,-0.2499,0,0,-0.1695,-0.1717,-0.1776,-0.1805,-0.1833,-0.1909,-0.1956,-0.2007,-0.2068,-0.2104,-0.2157,-0.2224,-0.2273,-0.2328,-0.2369,-0.2461,-0.2469,-0.2515,-0.252,-0.2524,-0.2534,-0.2584,-0.2593,-0.2496,-0.2496,-0.2496,0,0,-0.1696,-0.1741,-0.1761,-0.179,-0.1855,-0.1927,-0.1972,-0.2018,-0.2091,-0.2107,-0.215,-0.2167,-0.2238,-0.2288,-0.2247,-0.2398,-0.2382,-0.2391,-0.2364,-0.237,-0.2375,-0.2369,-0.2265,0,0,0,0,0,-0.1714,-0.1729,-0.1745,-0.1757,-0.184,-0.1911,-0.193,-0.1998,-0.2022,-0.2061,-0.2109,-0.2133,-0.2278,-0.2242,-0.2259,-0.2314,-0.2464,-0.247,-0.2475,-0.2458,-0.2465,-0.247,0,0,0,0,0,0,-0.1719,-0.1729,-0.1746,-0.1808,-0.1829,-0.191,-0.1925,-0.1945,-0.2019,-0.2028,-0.2121,-0.2134,-0.216,-0.2236,-0.2251,-0.2303,-0.226,-0.2466,-0.2471,-0.2476,-0.246,-0.2466,-0.247,0,0,0,0,0,-0.1723,-0.1731,-0.1836,-0.1811,-0.1829,-0.1921,-0.1925,-0.1942,-0.2012,-0.2068,-0.2085,-0.2064,-0.2158,-0.2176,-0.2245,-0.2295,-0.225,-0.2255,-0.2469,-0.2473,-0.2477,-0.2463,0,0,0,0,0,0,-0.1726,-0.176,-0.1843,-0.1853,-0.1808,-0.1921,-0.1936,-0.1939,-0.205,-0.2067,-0.2008,-0.2012,-0.2158,-0.2171,-0.2184,-0.2291,-0.2242,-0.2247,-0.2251,-0.2472,-0.2475,-0.2478,0,0,0,0,0,0,-0.1756,-0.1767,-0.1848,-0.184,-0.1851,-0.192,-0.1933,-0.1988,-0.205,-0.1984,-0.1991,-0.2009,-0.2134,-0.2168,-0.2178,-0.2263,-0.2235,-0.2241,-0.2244,-0.2247,-0.2475,-0.2477,0,0,0,0,0,0,-0.1763,-0.1773,-0.1838,-0.1846,-0.1855,-0.1978,-0.1972,-0.2051,-0.2049,-0.1978,-0.205,-0.2051,-0.2129,-0.2141,-0.2174,-0.2254,-0.2261,-0.2236,-0.2239,-0.2242,-0.2243,0,0,0,0,0,0,0,-0.1769,-0.1674,-0.178,-0.1851,-0.1859,-0.1948,-0.1951,-0.1954,-0.2049,-0.205,-0.205,-0.205,-0.2205,-0.2211,-0.2217,-0.2247,0,0,-0.2235,-0.2238,0,0,0,0,0,0,0,0,-0.1673,-0.1674,-0.178,-0.1782,-0.1784,-0.1949,-0.1951,-0.1954,-0.2049,-0.205,-0.205,-0.205,-0.2207,-0.2211,-0.2216,0,0,0,0,0,0,0,0,0,0,0,0,0,0,0,-0.178,-0.1782,0,-0.1949,-0.1951,-0.1953,-0.2049,-0.205,-0.205,-0.205,-0.2208,-0.2212,-0.2216,0,0,0,0,0,0,0,0,0,0,0,0,0,0,0,0,0,0,0,0,0,0,0,0,0,0,0,0,0,0,0,0,0,0,0,0,0,0,0,0,0,0,0,0,0,0,0,0,0,0,0,0,0,0,0,0,0,0,0,0,0,0,0,0,0,0,0,0,0]}],[{"header":{"parameterUnit":"kt","parameterCategory":2,"dx":1,"dy":1,"la1":30.253999710083008,"la2":30.299108505249023,"lo1":-89.0895004272461,"lo2":-89.04439544677734,"nx":28,"ny":28,"refTime":"2022-09-21T09:00:00:Z","depth":"4","parameterNumber":3,"parameterNumberName":"V-component_of_CURRENTS"},"data":[-0.1094,-0.1167,-0.1197,-0.1305,-0.1385,-0.1511,-0.1572,-0.1608,-0.1515,-0.1507,-0.1302,-0.1217,-0.0864,-0.1096,-0.0518,-0.0454,-0.0363,-0.0073,-0.0066,0.001,-0.0003,-0.0016,-0.0111,0,0,0,0,0,-0.1079,-0.112,-0.1215,-0.1333,-0.1442,-0.1512,-0.1613,-0.1661,-0.1695,-0.1563,-0.1546,-0.1319,-0.0945,-0.0819,-0.0532,-0.0569,-0.0275,-0.0226,-0.0165,0.0002,-0.0014,-0.0101,0,0,0,0,0,0,-0.1061,-0.1117,-0.1191,-0.1303,-0.1427,-0.1516,-0.1592,-0.1598,-0.1627,-0.1615,-0.1551,-0.1364,-0.1278,-0.0898,-0.0642,-0.0393,-0.0283,-0.0178,-0.0183,-0.0195,-0.0287,-0.0352,-0.0138,0,0,0,0,0,-0.1031,-0.1073,-0.1154,-0.1273,-0.1385,-0.1512,-0.1623,-0.1644,-0.1701,-0.1745,-0.1609,-0.1434,-0.1218,-0.0948,-0.0684,-0.0395,-0.0377,-0.0223,-0.0227,-0.0211,-0.0249,-0.0212,-0.0233,-0.0071,-0.0073,-0.0074,-0.0075,0,-0.0989,-0.1037,-0.1178,-0.1248,-0.1322,-0.1458,-0.1537,-0.1622,-0.166,-0.1687,-0.1684,-0.1577,-0.1501,-0.1044,-0.0857,-0.0473,-0.0386,-0.0264,-0.0249,-0.0275,-0.023,-0.0248,-0.0265,-0.0087,-0.0086,-0.0085,-0.0084,0,-0.0967,-0.1014,-0.1126,-0.1245,-0.1297,-0.1388,-0.1537,-0.1592,-0.1633,-0.1679,-0.1695,-0.1649,-0.1458,-0.1292,-0.0992,-0.081,-0.0541,-0.0404,-0.0636,-0.0589,-0.028,-0.0292,-0.0108,-0.0103,-0.0099,-0.0096,-0.0093,0,-0.094,-0.1024,-0.1112,-0.116,-0.1283,-0.1347,-0.1466,-0.1502,-0.1553,-0.1597,-0.1593,-0.1573,-0.1432,-0.13,-0.1084,-0.0785,-0.0824,-0.0523,-0.0458,-0.0647,-0.0656,-0.0582,-0.0585,-0.0569,-0.057,-0.0572,-0.0573,0,-0.0893,-0.1008,-0.1092,-0.113,-0.1235,-0.1301,-0.1367,-0.1423,-0.1467,-0.1503,-0.1518,-0.1474,-0.1445,-0.1259,-0.1059,-0.105,-0.0811,-0.0767,-0.0523,-0.0515,-0.0591,-0.0592,-0.0575,-0.0575,-0.0575,-0.0576,-0.0576,0,-0.0875,-0.0925,-0.1024,-0.114,-0.1164,-0.1235,-0.1323,-0.1373,-0.1408,-0.1409,-0.1413,-0.1395,-0.1352,-0.1261,-0.1074,-0.1126,-0.0954,-0.0838,-0.0827,-0.0701,-0.0635,-0.0655,-0.0678,-0.068,-0.0682,-0.0683,-0.0685,0,-0.0829,-0.0907,-0.0936,-0.1045,-0.1093,-0.1115,-0.1176,-0.1219,-0.1235,-0.1272,-0.1236,-0.1272,-0.121,-0.1206,-0.1127,-0.103,-0.0928,-0.1009,-0.0746,-0.0738,-0.066,-0.0658,-0.0901,-0.0708,-0.0705,-0.0703,-0.0702,0,-0.078,-0.0839,-0.0853,-0.0901,-0.095,-0.098,-0.1041,-0.1091,-0.1126,-0.1132,-0.1176,-0.1183,-0.1151,-0.1141,-0.1102,-0.1022,-0.0956,-0.0944,-0.0937,-0.0865,-0.0775,-0.0695,-0.0672,-0.0908,-0.0906,-0.0905,-0.0718,0,-0.0757,-0.0801,-0.0818,-0.086,-0.0891,-0.0923,-0.0936,-0.0964,-0.097,-0.0983,-0.1025,-0.0999,-0.1006,-0.0999,-0.0974,-0.0969,-0.0918,-0.0884,-0.0806,-0.0848,-0.076,-0.0748,-0.086,-0.0858,-0.0856,-0.0855,0,0,-0.0716,-0.0743,-0.0728,-0.0762,-0.0788,-0.0761,-0.0808,-0.0825,-0.0843,-0.0864,-0.0834,-0.0873,-0.0851,-0.0886,-0.0906,-0.0897,-0.083,-0.0859,-0.084,-0.0839,-0.0838,-0.0756,-0.0746,-0.0851,-0.0851,-0.085,-0.0849,0,-0.069,-0.0692,-0.0718,-0.073,-0.0734,-0.074,-0.0745,-0.0751,-0.0762,-0.0808,-0.0791,-0.0798,-0.0813,-0.0804,-0.0799,-0.0872,-0.0774,-0.0866,-0.0903,-0.0827,-0.0829,-0.0829,-0.075,-0.0743,-0.0845,-0.0845,-0.0845,0,-0.0653,-0.0651,-0.0659,-0.0667,-0.0668,-0.07,-0.0655,-0.067,-0.0706,-0.0657,-0.0715,-0.071,-0.069,-0.0725,-0.0732,-0.0688,-0.0693,-0.0721,-0.073,-0.0727,-0.0645,-0.0648,-0.065,-0.0611,-0.0611,-0.0611,0,0,-0.0639,-0.0655,-0.064,-0.0657,-0.0658,-0.0653,-0.0661,-0.0654,-0.0657,-0.0665,-0.0661,-0.0653,-0.0669,-0.0657,-0.0671,-0.0689,-0.062,-0.0697,-0.0708,-0.0717,-0.072,-0.0641,-0.0644,-0.0609,-0.0609,-0.0609,0,0,-0.0623,-0.0611,-0.0603,-0.0622,-0.0623,-0.0616,-0.0635,-0.0627,-0.0649,-0.0647,-0.0618,-0.0614,-0.0652,-0.0614,-0.06,-0.0633,-0.0581,-0.0584,-0.0664,-0.0677,-0.0687,-0.0693,-0.0539,0,0,0,0,0,-0.0588,-0.0611,-0.0605,-0.0604,-0.0613,-0.0622,-0.0627,-0.0616,-0.0603,-0.0623,-0.0623,-0.0581,-0.0599,-0.0587,-0.0586,-0.0611,-0.0591,-0.0594,-0.0597,-0.0705,-0.072,-0.0732,0,0,0,0,0,0,-0.0587,-0.0586,-0.0604,-0.0594,-0.0596,-0.0621,-0.059,-0.059,-0.06,-0.0597,-0.0587,-0.0581,-0.056,-0.0584,-0.0584,-0.0608,-0.0539,-0.0592,-0.0595,-0.0597,-0.071,-0.0722,-0.0732,0,0,0,0,0,-0.0586,-0.0586,-0.0596,-0.0595,-0.0597,-0.0586,-0.0589,-0.0588,-0.0606,-0.0574,-0.057,-0.0593,-0.0561,-0.0559,-0.0584,-0.0609,-0.0538,-0.0538,-0.0594,-0.0596,-0.0598,-0.0716,0,0,0,0,0,0,-0.0586,-0.0605,-0.0597,-0.0598,-0.0574,-0.0586,-0.0585,-0.0587,-0.0582,-0.0578,-0.0577,-0.0574,-0.0563,-0.0561,-0.0559,-0.0612,-0.0538,-0.0538,-0.0538,-0.0595,-0.0597,-0.0599,0,0,0,0,0,0,-0.0604,-0.0606,-0.0598,-0.0571,-0.0569,-0.0585,-0.0584,-0.0592,-0.0581,-0.0587,-0.0584,-0.0575,-0.0542,-0.0563,-0.0561,-0.0577,-0.0538,-0.0538,-0.0538,-0.0538,-0.0597,-0.0598,0,0,0,0,0,0,-0.0605,-0.0606,-0.0571,-0.057,-0.0568,-0.0583,-0.0591,-0.0591,-0.0587,-0.0587,-0.0581,-0.0579,-0.0543,-0.0543,-0.0563,-0.058,-0.0578,-0.0538,-0.0538,-0.0538,-0.0538,0,0,0,0,0,0,0,-0.0606,-0.0594,-0.0582,-0.0569,-0.0568,-0.0603,-0.0604,-0.0605,-0.0586,-0.0584,-0.0582,-0.058,-0.0537,-0.0537,-0.0537,-0.0582,0,0,-0.0538,-0.0538,0,0,0,0,0,0,0,0,-0.0594,-0.0594,-0.0582,-0.0582,-0.0581,-0.0603,-0.0604,-0.0605,-0.0586,-0.0584,-0.0582,-0.0581,-0.0537,-0.0537,-0.0537,0,0,0,0,0,0,0,0,0,0,0,0,0,0,0,-0.0582,-0.0582,0,-0.0603,-0.0604,-0.0605,-0.0586,-0.0584,-0.0583,-0.0581,-0.0537,-0.0537,-0.0537,0,0,0,0,0,0,0,0,0,0,0,0,0,0,0,0,0,0,0,0,0,0,0,0,0,0,0,0,0,0,0,0,0,0,0,0,0,0,0,0,0,0,0,0,0,0,0,0,0,0,0,0,0,0,0,0,0,0,0,0,0,0,0,0,0,0,0,0,0]}]]]